Castlegar, British Columbia

12:56 PM PST on February 27, 2017 (GMT -0800)
Castlegar

Weather History for CYCG - September, 2012

Change the Weather History Date:

Tuesday, September 4, 2012

  Actual Average Record
Temperature  
Mean Temperature 66 °F -  
Max Temperature 77 °F 67 °F 95 °F (1998)
Min Temperature 56 °F 44 °F 39 °F (1999)
Cooling Degree Days 2    
Growing Degree Days 16 (Base 50)    
Moisture  
Dew Point 45 °F    
Average Humidity 52    
Maximum Humidity 87    
Minimum Humidity 26    
Precipitation  
Precipitation 0.00 in 0.06 in - ()
Sea Level Pressure  
Sea Level Pressure 30.13 in    
Wind  
Wind Speed 3 mph ()    
Max Wind Speed 10 mph    
Max Gust Speed -    
Visibility 15.0 miles    
Events      
Averages and records for this station are not official NWS values.
T = Trace of Precipitation, MM = Missing Value Source: Averaged Metar Reports

Daily Weather History Graph

Daily Weather History Graph

Search for Another Location

Airport or City:

Trip Planner

Search our weather history database for the weather conditions in past years. The results will help you decide how hot, cold, wet, or windy it might be!

Date:

Astronomy

Sep. 04, 2012 Rise Set
Actual Time 6:11 AM PDT 7:25 PM PDT
Civil Twilight 5:38 AM PDT 7:58 PM PDT
Nautical Twilight 4:59 AM PDT 8:38 PM PDT
Astronomical Twilight 4:16 AM PDT 9:20 PM PDT
Moon 8:50 PM PDT (9/4) 10:52 AM PDT (9/4)
Length of Visible Light 14h 19m
Length of Day
13h 14m
Waning Gibbous, 83% of the Moon is Illuminated
Sep 4
Waning Gibbous
Sep 8
Last Quarter
Sep 15
New
Sep 22
First Quarter
Sep 29
Full

Hourly Weather History & Observations

Time (PDT) Temp. Dew Point Humidity Pressure Visibility Wind Dir Wind Speed Gust Speed Precip Events Conditions
5:00 AM 62 °F 59 °F 86% 30.15 in - SW 6.9 mph - -  
6:00 AM 46.4 °F 42.8 °F 87% 30.17 in 15.0 mi Calm Calm - N/A   Scattered Clouds
7:00 AM 46.4 °F 42.8 °F 87% 30.20 in 15.0 mi Calm Calm - N/A   Partly Cloudy
8:00 AM 50.0 °F 44.6 °F 82% 30.21 in 15.0 mi Calm Calm - N/A   Partly Cloudy
9:00 AM 53.6 °F 44.6 °F 72% 30.19 in 15.0 mi Calm Calm - N/A   Partly Cloudy
10:00 AM 60.8 °F 44.6 °F 55% 30.19 in 15.0 mi Calm Calm - N/A   Partly Cloudy
11:00 AM 67 °F 56 °F 60% 30.12 in - SSW 10.4 mph - -  
11:00 AM 66.2 °F 46.4 °F 49% 30.17 in 15.0 mi Calm Calm - N/A   Partly Cloudy
12:00 PM 71.6 °F 44.6 °F 38% 30.15 in 15.0 mi Calm Calm - N/A   Partly Cloudy
1:00 PM 75.2 °F 41.0 °F 29% 30.14 in 15.0 mi NNW 9.2 mph - N/A   Partly Cloudy
2:00 PM 73.4 °F 41.0 °F 31% 30.12 in 15.0 mi North 2.3 mph - N/A   Partly Cloudy
3:00 PM 78.8 °F 41.0 °F 26% 30.11 in 15.0 mi NNW 4.6 mph - N/A   Partly Cloudy
4:00 PM 77.0 °F 39.2 °F 26% 30.10 in 15.0 mi NNW 10.4 mph - N/A   Partly Cloudy
5:00 PM 62 °F 56 °F 73% 30.07 in - SSE 3.5 mph - -  
5:00 PM 77.0 °F 39.2 °F 26% 30.09 in 15.0 mi North 5.8 mph - N/A   Partly Cloudy
6:00 PM 73.4 °F 41.0 °F 31% 30.09 in 15.0 mi NNW 8.1 mph - N/A   Partly Cloudy
7:00 PM 69.8 °F 41.0 °F 35% 30.09 in 15.0 mi North 2.3 mph - N/A   Partly Cloudy
8:00 PM 68.0 °F 39.2 °F 35% 30.11 in 15.0 mi NNE 2.3 mph - N/A   Clear
9:00 PM 66.2 °F 41.0 °F 40% 30.12 in 15.0 mi ENE 3.5 mph - N/A   Clear
11:00 PM 61 °F 56 °F 80% 29.98 in - ESE 10.4 mph - -